Year,Month,Day,Hour,Minute,Value (Times are PST for temperature in C)
2010,06,14,00,00,11.20
2010,06,14,00,01,11.20
2010,06,14,00,02,11.20
2010,06,14,00,03,11.10
2010,06,14,00,04,11.10
2010,06,14,00,05,11.10
2010,06,14,00,06,11.10
2010,06,14,00,07,11.10
2010,06,14,00,08,11.00
2010,06,14,00,09,11.00
2010,06,14,00,10,11.00
2010,06,14,00,11,10.90
2010,06,14,00,12,10.90
2010,06,14,00,13,10.90
2010,06,14,00,14,10.90
2010,06,14,00,15,10.90
2010,06,14,00,16,10.80
2010,06,14,00,17,10.80
2010,06,14,00,18,10.80
2010,06,14,00,19,10.80
2010,06,14,00,20,10.80
2010,06,14,00,21,10.80
2010,06,14,00,22,10.80
2010,06,14,00,23,10.80
2010,06,14,00,24,10.80
2010,06,14,00,25,10.80
2010,06,14,00,26,10.70
2010,06,14,00,27,10.70
2010,06,14,00,28,10.70
2010,06,14,00,29,10.70
2010,06,14,00,30,10.70
2010,06,14,00,31,10.70
2010,06,14,00,32,10.60
2010,06,14,00,33,10.60
2010,06,14,00,34,10.60
2010,06,14,00,35,10.60
2010,06,14,00,36,10.60
2010,06,14,00,37,10.50
2010,06,14,00,38,10.50
2010,06,14,00,39,10.40
2010,06,14,00,40,10.40
2010,06,14,00,41,10.40
2010,06,14,00,42,10.40
2010,06,14,00,43,10.40
2010,06,14,00,44,10.40
2010,06,14,00,45,10.30
2010,06,14,00,46,10.30
2010,06,14,00,47,10.30
2010,06,14,00,48,10.30
2010,06,14,00,49,10.30
2010,06,14,00,50,10.30
2010,06,14,00,51,10.30
2010,06,14,00,52,10.20
2010,06,14,00,53,10.20
2010,06,14,00,54,10.20
2010,06,14,00,55,10.20
2010,06,14,00,56,10.20
2010,06,14,00,57,10.20
2010,06,14,00,58,10.20
2010,06,14,00,59,10.20
2010,06,14,01,00,10.20
2010,06,14,01,01,10.20
2010,06,14,01,02,10.20
2010,06,14,01,03,10.20
2010,06,14,01,04,10.20
2010,06,14,01,05,10.20
2010,06,14,01,06,10.20
2010,06,14,01,07,10.20
2010,06,14,01,08,10.20
2010,06,14,01,09,10.10
2010,06,14,01,10,10.10
2010,06,14,01,11,10.10
2010,06,14,01,12,10.10
2010,06,14,01,13,10.10
2010,06,14,01,14,10.10
2010,06,14,01,15,10.10
2010,06,14,01,16,10.10
2010,06,14,01,17,10.10
2010,06,14,01,18,10.00
2010,06,14,01,19,10.00
2010,06,14,01,20,10.00
2010,06,14,01,21,9.90
2010,06,14,01,22,9.90
2010,06,14,01,23,9.90
2010,06,14,01,24,9.90
2010,06,14,01,25,9.90
2010,06,14,01,26,9.80
2010,06,14,01,27,9.80
2010,06,14,01,28,9.80
2010,06,14,01,29,9.80
2010,06,14,01,30,9.80
2010,06,14,01,31,9.80
2010,06,14,01,32,9.80
2010,06,14,01,33,9.80
2010,06,14,01,34,9.80
2010,06,14,01,35,9.80
2010,06,14,01,36,9.80
2010,06,14,01,37,9.70
2010,06,14,01,38,9.70
2010,06,14,01,39,9.70
2010,06,14,01,40,9.70
2010,06,14,01,41,9.70
2010,06,14,01,42,9.70
2010,06,14,01,43,9.70
2010,06,14,01,44,9.70
2010,06,14,01,45,9.70
2010,06,14,01,46,9.70
2010,06,14,01,47,9.70
2010,06,14,01,48,9.70
2010,06,14,01,49,9.70
2010,06,14,01,50,9.70
2010,06,14,01,51,9.70
2010,06,14,01,52,9.70
2010,06,14,01,53,9.70
2010,06,14,01,54,9.70
2010,06,14,01,55,9.70
2010,06,14,01,56,9.70
2010,06,14,01,57,9.70
2010,06,14,01,58,9.70
2010,06,14,01,59,9.70
2010,06,14,02,00,9.60
2010,06,14,02,01,9.60
2010,06,14,02,02,9.60
2010,06,14,02,03,9.60
2010,06,14,02,04,9.60
2010,06,14,02,05,9.60
2010,06,14,02,06,9.60
2010,06,14,02,07,9.60
2010,06,14,02,08,9.60
2010,06,14,02,09,9.60
2010,06,14,02,10,9.60
2010,06,14,02,11,9.60
2010,06,14,02,12,9.60
2010,06,14,02,13,9.60
2010,06,14,02,14,9.50
2010,06,14,02,15,9.50
2010,06,14,02,16,9.50
2010,06,14,02,17,9.50
2010,06,14,02,18,9.40
2010,06,14,02,19,9.40
2010,06,14,02,20,9.40
2010,06,14,02,21,9.40
2010,06,14,02,22,9.40
2010,06,14,02,23,9.40
2010,06,14,02,24,9.30
2010,06,14,02,25,9.30
2010,06,14,02,26,9.30
2010,06,14,02,27,9.30
2010,06,14,02,28,9.30
2010,06,14,02,29,9.20
2010,06,14,02,30,9.20
2010,06,14,02,31,9.20
2010,06,14,02,32,9.20
2010,06,14,02,33,9.20
2010,06,14,02,34,9.20
2010,06,14,02,35,9.10
2010,06,14,02,36,9.10
2010,06,14,02,37,9.10
2010,06,14,02,38,9.10
2010,06,14,02,39,9.10
2010,06,14,02,40,9.10
2010,06,14,02,41,9.10
2010,06,14,02,42,9.10
2010,06,14,02,43,9.00
2010,06,14,02,44,9.00
2010,06,14,02,45,9.00
2010,06,14,02,46,8.90
2010,06,14,02,47,8.90
2010,06,14,02,48,8.90
2010,06,14,02,49,8.90
2010,06,14,02,50,8.90
2010,06,14,02,51,8.90
2010,06,14,02,52,8.90
2010,06,14,02,53,8.90
2010,06,14,02,54,8.90
2010,06,14,02,55,8.80
2010,06,14,02,56,8.80
2010,06,14,02,57,8.80
2010,06,14,02,58,8.80
2010,06,14,02,59,8.80
2010,06,14,03,00,8.80
2010,06,14,03,01,8.80
2010,06,14,03,02,8.80
2010,06,14,03,03,8.80
2010,06,14,03,04,8.80
2010,06,14,03,05,8.80
2010,06,14,03,06,8.70
2010,06,14,03,07,8.70
2010,06,14,03,08,8.70
2010,06,14,03,09,8.70
2010,06,14,03,10,8.70
2010,06,14,03,11,8.70
2010,06,14,03,12,8.70
2010,06,14,03,13,8.70
2010,06,14,03,14,8.70
2010,06,14,03,15,8.60
2010,06,14,03,16,8.60
2010,06,14,03,17,8.60
2010,06,14,03,18,8.60
2010,06,14,03,19,8.60
2010,06,14,03,20,8.60
2010,06,14,03,21,8.60
2010,06,14,03,22,8.60
2010,06,14,03,23,8.50
2010,06,14,03,24,8.50
2010,06,14,03,25,8.50
2010,06,14,03,26,8.40
2010,06,14,03,27,8.40
2010,06,14,03,28,8.40
2010,06,14,03,29,8.40
2010,06,14,03,30,8.40
2010,06,14,03,31,8.40
2010,06,14,03,32,8.30
2010,06,14,03,33,8.30
2010,06,14,03,34,8.30
2010,06,14,03,35,8.30
2010,06,14,03,36,8.30
2010,06,14,03,37,8.30
2010,06,14,03,38,8.20
2010,06,14,03,39,8.20
2010,06,14,03,40,8.20
2010,06,14,03,41,8.20
2010,06,14,03,42,8.20
2010,06,14,03,43,8.20
2010,06,14,03,44,8.10
2010,06,14,03,45,8.10
2010,06,14,03,46,8.10
2010,06,14,03,47,8.10
2010,06,14,03,48,8.10
2010,06,14,03,49,8.00
2010,06,14,03,50,8.00
2010,06,14,03,51,8.00
2010,06,14,03,52,7.90
2010,06,14,03,53,7.90
2010,06,14,03,54,7.90
2010,06,14,03,55,7.90
2010,06,14,03,56,7.90
2010,06,14,03,57,7.90
2010,06,14,03,58,7.90
2010,06,14,03,59,7.80
2010,06,14,04,00,7.80
2010,06,14,04,01,7.80
2010,06,14,04,02,7.80
2010,06,14,04,03,7.80
2010,06,14,04,04,7.80
2010,06,14,04,05,7.80
2010,06,14,04,06,7.80
2010,06,14,04,07,7.80
2010,06,14,04,08,7.70
2010,06,14,04,09,7.70
2010,06,14,04,10,7.70
2010,06,14,04,11,7.70
2010,06,14,04,12,7.70
2010,06,14,04,13,7.70
2010,06,14,04,14,7.70
2010,06,14,04,15,7.70
2010,06,14,04,16,7.70
2010,06,14,04,17,7.60
2010,06,14,04,18,7.60
2010,06,14,04,19,7.60
2010,06,14,04,20,7.60
2010,06,14,04,21,7.60
2010,06,14,04,22,7.60
2010,06,14,04,23,7.60
2010,06,14,04,24,7.60
2010,06,14,04,25,7.60
2010,06,14,04,26,7.50
2010,06,14,04,27,7.50
2010,06,14,04,28,7.50
2010,06,14,04,29,7.40
2010,06,14,04,30,7.40
2010,06,14,04,31,7.40
2010,06,14,04,32,7.40
2010,06,14,04,33,7.40
2010,06,14,04,34,7.40
2010,06,14,04,35,7.40
2010,06,14,04,36,7.40
2010,06,14,04,37,7.30
2010,06,14,04,38,7.30
2010,06,14,04,39,7.30
2010,06,14,04,40,7.30
2010,06,14,04,41,7.30
2010,06,14,04,42,7.30
2010,06,14,04,43,7.30
2010,06,14,04,44,7.30
2010,06,14,04,45,7.30
2010,06,14,04,46,7.30
2010,06,14,04,47,7.30
2010,06,14,04,48,7.30
2010,06,14,04,49,7.30
2010,06,14,04,50,7.30
2010,06,14,04,51,7.30
2010,06,14,04,52,7.30
2010,06,14,04,53,7.30
2010,06,14,04,54,7.30
2010,06,14,04,55,7.20
2010,06,14,04,56,7.20
2010,06,14,04,57,7.20
2010,06,14,04,58,7.20
2010,06,14,04,59,7.20
2010,06,14,05,00,7.20
2010,06,14,05,01,7.20
2010,06,14,05,02,7.20
2010,06,14,05,03,7.20
2010,06,14,05,04,7.20
2010,06,14,05,05,7.20
2010,06,14,05,06,7.20
2010,06,14,05,07,7.20
2010,06,14,05,08,7.20
2010,06,14,05,09,7.20
2010,06,14,05,10,7.20
2010,06,14,05,11,7.20
2010,06,14,05,12,7.20
2010,06,14,05,13,7.20
2010,06,14,05,14,7.20
2010,06,14,05,15,7.20
2010,06,14,05,16,7.20
2010,06,14,05,17,7.20
2010,06,14,05,18,7.20
2010,06,14,05,19,7.10
2010,06,14,05,20,7.10
2010,06,14,05,21,7.10
2010,06,14,05,22,7.10
2010,06,14,05,23,7.10
2010,06,14,05,24,7.10
2010,06,14,05,25,7.10
2010,06,14,05,26,7.00
2010,06,14,05,27,7.00
2010,06,14,05,28,7.00
2010,06,14,05,29,7.00
2010,06,14,05,30,6.90
2010,06,14,05,31,6.90
2010,06,14,05,32,6.90
2010,06,14,05,33,6.90
2010,06,14,05,34,6.90
2010,06,14,05,35,6.90
2010,06,14,05,36,6.90
2010,06,14,05,37,6.90
2010,06,14,05,38,6.90
2010,06,14,05,39,6.90
2010,06,14,05,40,6.80
2010,06,14,05,41,6.80
2010,06,14,05,42,6.80
2010,06,14,05,43,6.80
2010,06,14,05,44,6.80
2010,06,14,05,45,6.80
2010,06,14,05,46,6.70
2010,06,14,05,47,6.70
2010,06,14,05,48,6.70
2010,06,14,05,49,6.70
2010,06,14,05,50,6.70
2010,06,14,05,51,6.70
2010,06,14,05,52,6.70
2010,06,14,05,53,6.70
2010,06,14,05,54,6.80
2010,06,14,05,55,6.80
2010,06,14,05,56,6.80
2010,06,14,05,57,6.80
2010,06,14,05,58,6.90
2010,06,14,05,59,6.90
2010,06,14,06,00,6.90
2010,06,14,06,01,6.90
2010,06,14,06,02,6.90
2010,06,14,06,03,6.90
2010,06,14,06,04,7.00
2010,06,14,06,05,7.10
2010,06,14,06,06,7.10
2010,06,14,06,07,7.20
2010,06,14,06,08,7.20
2010,06,14,06,09,7.20
2010,06,14,06,10,7.20
2010,06,14,06,11,7.30
2010,06,14,06,12,7.30
2010,06,14,06,13,7.40
2010,06,14,06,14,7.40
2010,06,14,06,15,7.50
2010,06,14,06,16,7.60
2010,06,14,06,17,7.60
2010,06,14,06,18,7.70
2010,06,14,06,19,7.70
2010,06,14,06,20,7.80
2010,06,14,06,21,7.80
2010,06,14,06,22,7.80
2010,06,14,06,23,7.80
2010,06,14,06,24,7.80
2010,06,14,06,25,7.90
2010,06,14,06,26,7.90
2010,06,14,06,27,8.00
2010,06,14,06,28,8.10
2010,06,14,06,29,8.10
2010,06,14,06,30,8.20
2010,06,14,06,31,8.20
2010,06,14,06,32,8.30
2010,06,14,06,33,8.40
2010,06,14,06,34,8.40
2010,06,14,06,35,8.50
2010,06,14,06,36,8.60
2010,06,14,06,37,8.60
2010,06,14,06,38,8.70
2010,06,14,06,39,8.70
2010,06,14,06,40,8.80
2010,06,14,06,41,8.90
2010,06,14,06,42,8.90
2010,06,14,06,43,9.00
2010,06,14,06,44,9.00
2010,06,14,06,45,9.10
2010,06,14,06,46,9.10
2010,06,14,06,47,9.10
2010,06,14,06,48,9.10
2010,06,14,06,49,9.10
2010,06,14,06,50,9.10
2010,06,14,06,51,9.20
2010,06,14,06,52,9.20
2010,06,14,06,53,9.20
2010,06,14,06,54,9.20
2010,06,14,06,55,9.20
2010,06,14,06,56,9.30
2010,06,14,06,57,9.30
2010,06,14,06,58,9.30
2010,06,14,06,59,9.30
2010,06,14,07,00,9.30
2010,06,14,07,01,9.30
2010,06,14,07,02,9.30
2010,06,14,07,03,9.30
2010,06,14,07,04,9.30
2010,06,14,07,05,9.30
2010,06,14,07,06,9.40
2010,06,14,07,07,9.40
2010,06,14,07,08,9.60
2010,06,14,07,09,9.60
2010,06,14,07,10,9.70
2010,06,14,07,11,9.70
2010,06,14,07,12,9.70
2010,06,14,07,13,9.70
2010,06,14,07,14,9.70
2010,06,14,07,15,9.70
2010,06,14,07,16,9.60
2010,06,14,07,17,9.60
2010,06,14,07,18,9.60
2010,06,14,07,19,9.60
2010,06,14,07,20,9.50
2010,06,14,07,21,9.40
2010,06,14,07,22,9.40
2010,06,14,07,23,9.40
2010,06,14,07,24,9.40
2010,06,14,07,25,9.40
2010,06,14,07,26,9.40
2010,06,14,07,27,9.40
2010,06,14,07,28,9.40
2010,06,14,07,29,9.40
2010,06,14,07,30,9.40
2010,06,14,07,31,9.30
2010,06,14,07,32,9.40
2010,06,14,07,33,9.40
2010,06,14,07,34,9.40
2010,06,14,07,35,9.40
2010,06,14,07,36,9.40
2010,06,14,07,37,9.50
2010,06,14,07,38,9.60
2010,06,14,07,39,9.60
2010,06,14,07,40,9.70
2010,06,14,07,41,9.70
2010,06,14,07,42,9.70
2010,06,14,07,43,9.80
2010,06,14,07,44,9.80
2010,06,14,07,45,9.80
2010,06,14,07,46,9.80
2010,06,14,07,47,9.80
2010,06,14,07,48,9.80
2010,06,14,07,49,9.80
2010,06,14,07,50,9.80
2010,06,14,07,51,9.90
2010,06,14,07,52,9.90
2010,06,14,07,53,10.00
2010,06,14,07,54,10.10
2010,06,14,07,55,10.20
2010,06,14,07,56,10.20
2010,06,14,07,57,10.20
2010,06,14,07,58,10.30
2010,06,14,07,59,10.30
2010,06,14,08,00,10.30
2010,06,14,08,01,10.30
2010,06,14,08,02,10.40
2010,06,14,08,03,10.40
2010,06,14,08,04,10.50
2010,06,14,08,05,10.60
2010,06,14,08,06,10.60
2010,06,14,08,07,10.60
2010,06,14,08,08,10.60
2010,06,14,08,09,10.60
2010,06,14,08,10,10.60
2010,06,14,08,11,10.60
2010,06,14,08,12,10.50
2010,06,14,08,13,10.50
2010,06,14,08,14,10.50
2010,06,14,08,15,10.50
2010,06,14,08,16,10.50
2010,06,14,08,17,10.50
2010,06,14,08,18,10.50
2010,06,14,08,19,10.50
2010,06,14,08,20,10.60
2010,06,14,08,21,10.60
2010,06,14,08,22,10.70
2010,06,14,08,23,10.80
2010,06,14,08,24,10.80
2010,06,14,08,25,10.90
2010,06,14,08,26,10.90
2010,06,14,08,27,11.00
2010,06,14,08,28,11.10
2010,06,14,08,29,11.10
2010,06,14,08,30,11.10
2010,06,14,08,31,11.10
2010,06,14,08,32,11.00
2010,06,14,08,33,11.00
2010,06,14,08,34,11.10
2010,06,14,08,35,11.10
2010,06,14,08,36,11.10
2010,06,14,08,37,11.10
2010,06,14,08,38,11.10
2010,06,14,08,39,11.00
2010,06,14,08,40,11.10
2010,06,14,08,41,11.10
2010,06,14,08,42,11.10
2010,06,14,08,43,11.10
2010,06,14,08,44,11.20
2010,06,14,08,45,11.20
2010,06,14,08,46,11.30
2010,06,14,08,47,11.30
2010,06,14,08,48,11.40
2010,06,14,08,49,11.50
2010,06,14,08,50,11.60
2010,06,14,08,51,11.60
2010,06,14,08,52,11.70
2010,06,14,08,53,11.70
2010,06,14,08,54,11.80
2010,06,14,08,55,11.80
2010,06,14,08,56,11.80
2010,06,14,08,57,11.80
2010,06,14,08,58,11.80
2010,06,14,08,59,11.90
2010,06,14,09,00,11.90
2010,06,14,09,01,11.90
2010,06,14,09,02,11.90
2010,06,14,09,03,11.90
2010,06,14,09,04,11.90
2010,06,14,09,05,11.90
2010,06,14,09,06,11.90
2010,06,14,09,07,11.90
2010,06,14,09,08,11.90
2010,06,14,09,09,11.90
2010,06,14,09,10,11.90
2010,06,14,09,11,11.90
2010,06,14,09,12,12.00
2010,06,14,09,13,12.00
2010,06,14,09,14,12.10
2010,06,14,09,15,12.10
2010,06,14,09,16,12.20
2010,06,14,09,17,12.20
2010,06,14,09,18,12.30
2010,06,14,09,19,12.40
2010,06,14,09,20,12.40
2010,06,14,09,21,12.60
2010,06,14,09,22,12.80
2010,06,14,09,23,12.90
2010,06,14,09,24,13.10
2010,06,14,09,25,13.10
2010,06,14,09,26,13.10
2010,06,14,09,27,13.20
2010,06,14,09,28,13.20
2010,06,14,09,29,13.30
2010,06,14,09,30,13.30
2010,06,14,09,31,13.30
2010,06,14,09,32,13.30
2010,06,14,09,33,13.30
2010,06,14,09,34,13.30
2010,06,14,09,35,13.40
2010,06,14,09,36,13.40
2010,06,14,09,37,13.60
2010,06,14,09,38,13.60
2010,06,14,09,39,13.70
2010,06,14,09,40,13.70
2010,06,14,09,41,13.80
2010,06,14,09,42,13.80
2010,06,14,09,43,13.80
2010,06,14,09,44,13.80
2010,06,14,09,45,13.80
2010,06,14,09,46,13.70
2010,06,14,09,47,13.70
2010,06,14,09,48,13.70
2010,06,14,09,49,13.70
2010,06,14,09,50,13.70
2010,06,14,09,51,13.70
2010,06,14,09,52,13.70
2010,06,14,09,53,13.80
2010,06,14,09,54,13.80
2010,06,14,09,55,13.90
2010,06,14,09,56,13.90
2010,06,14,09,57,14.00
2010,06,14,09,58,14.10
2010,06,14,09,59,14.10
2010,06,14,10,00,14.10
2010,06,14,10,01,14.20
2010,06,14,10,02,14.30
2010,06,14,10,03,14.30
2010,06,14,10,04,14.40
2010,06,14,10,05,14.40
2010,06,14,10,06,14.50
2010,06,14,10,07,14.50
2010,06,14,10,08,14.60
2010,06,14,10,09,14.60
2010,06,14,10,10,14.50
2010,06,14,10,11,14.50
2010,06,14,10,12,14.40
2010,06,14,10,13,14.50
2010,06,14,10,14,14.50
2010,06,14,10,15,14.60
2010,06,14,10,16,14.60
2010,06,14,10,17,14.70
2010,06,14,10,18,14.70
2010,06,14,10,19,14.70
2010,06,14,10,20,14.80
2010,06,14,10,21,14.80
2010,06,14,10,22,14.80
2010,06,14,10,23,14.90
2010,06,14,10,24,14.90
2010,06,14,10,25,15.00
2010,06,14,10,26,15.00
2010,06,14,10,27,15.00
2010,06,14,10,28,15.00
2010,06,14,10,29,15.00
2010,06,14,10,30,15.10
2010,06,14,10,31,15.10
2010,06,14,10,32,15.10
2010,06,14,10,33,15.10
2010,06,14,10,34,15.10
2010,06,14,10,35,15.10
2010,06,14,10,36,15.20
2010,06,14,10,37,15.20
2010,06,14,10,38,15.20
2010,06,14,10,39,15.20
2010,06,14,10,40,15.20
2010,06,14,10,41,15.20
2010,06,14,10,42,15.30
2010,06,14,10,43,15.30
2010,06,14,10,44,15.30
2010,06,14,10,45,15.30
2010,06,14,10,46,15.40
2010,06,14,10,47,15.40
2010,06,14,10,48,15.40
2010,06,14,10,49,15.40
2010,06,14,10,50,15.40
2010,06,14,10,51,15.40
2010,06,14,10,52,15.40
2010,06,14,10,53,15.40
2010,06,14,10,54,15.30
2010,06,14,10,55,15.30
2010,06,14,10,56,15.20
2010,06,14,10,57,15.20
2010,06,14,10,58,15.10
2010,06,14,10,59,15.10
2010,06,14,11,00,15.00
2010,06,14,11,01,15.00
2010,06,14,11,02,15.00
2010,06,14,11,03,15.00
2010,06,14,11,04,15.00
2010,06,14,11,05,15.00
2010,06,14,11,06,15.00
2010,06,14,11,07,15.00
2010,06,14,11,08,15.10
2010,06,14,11,09,15.10
2010,06,14,11,10,15.20
2010,06,14,11,11,15.20
2010,06,14,11,12,15.30
2010,06,14,11,13,15.30
2010,06,14,11,14,15.30
2010,06,14,11,15,15.30
2010,06,14,11,16,15.30
2010,06,14,11,17,15.20
2010,06,14,11,18,15.20
2010,06,14,11,19,15.20
2010,06,14,11,20,15.20
2010,06,14,11,21,15.20
2010,06,14,11,22,15.20
2010,06,14,11,23,15.30
2010,06,14,11,24,15.30
2010,06,14,11,25,15.40
2010,06,14,11,26,15.40
2010,06,14,11,27,15.50
2010,06,14,11,28,15.60
2010,06,14,11,29,15.60
2010,06,14,11,30,15.70
2010,06,14,11,31,15.70
2010,06,14,11,32,15.70
2010,06,14,11,33,15.80
2010,06,14,11,34,15.80
2010,06,14,11,35,15.80
2010,06,14,11,36,15.80
2010,06,14,11,37,15.80
2010,06,14,11,38,15.80
2010,06,14,11,39,15.80
2010,06,14,11,40,15.90
2010,06,14,11,41,15.90
2010,06,14,11,42,16.10
2010,06,14,11,43,16.10
2010,06,14,11,44,16.20
2010,06,14,11,45,16.30
2010,06,14,11,46,16.30
2010,06,14,11,47,16.30
2010,06,14,11,48,16.40
2010,06,14,11,49,16.40
2010,06,14,11,50,16.40
2010,06,14,11,51,16.40
2010,06,14,11,52,16.50
2010,06,14,11,53,16.60
2010,06,14,11,54,16.60
2010,06,14,11,55,16.60
2010,06,14,11,56,16.60
2010,06,14,11,57,16.70
2010,06,14,11,58,16.80
2010,06,14,11,59,16.80
2010,06,14,12,00,16.90
2010,06,14,12,01,16.80
2010,06,14,12,02,16.80
2010,06,14,12,03,16.90
2010,06,14,12,04,16.90
2010,06,14,12,05,16.90
2010,06,14,12,06,16.90
2010,06,14,12,07,16.90
2010,06,14,12,08,17.00
2010,06,14,12,09,17.10
2010,06,14,12,10,17.10
2010,06,14,12,11,17.00
2010,06,14,12,12,17.00
2010,06,14,12,13,17.00
2010,06,14,12,14,17.00
2010,06,14,12,15,17.10
2010,06,14,12,16,17.10
2010,06,14,12,17,17.20
2010,06,14,12,18,17.20
2010,06,14,12,19,17.20
2010,06,14,12,20,17.20
2010,06,14,12,21,17.20
2010,06,14,12,22,17.20
2010,06,14,12,23,17.20
2010,06,14,12,24,17.20
2010,06,14,12,25,17.20
2010,06,14,12,26,17.10
2010,06,14,12,27,17.10
2010,06,14,12,28,17.20
2010,06,14,12,29,17.20
2010,06,14,12,30,17.20
2010,06,14,12,31,17.30
2010,06,14,12,32,17.30
2010,06,14,12,33,17.30
2010,06,14,12,34,17.30
2010,06,14,12,35,17.30
2010,06,14,12,36,17.30
2010,06,14,12,37,17.30
2010,06,14,12,38,17.30
2010,06,14,12,39,17.30
2010,06,14,12,40,17.30
2010,06,14,12,41,17.40
2010,06,14,12,42,17.40
2010,06,14,12,43,17.40
2010,06,14,12,44,17.50
2010,06,14,12,45,17.60
2010,06,14,12,46,17.60
2010,06,14,12,47,17.60
2010,06,14,12,48,17.60
2010,06,14,12,49,17.60
2010,06,14,12,50,17.70
2010,06,14,12,51,17.70
2010,06,14,12,52,17.80
2010,06,14,12,53,17.90
2010,06,14,12,54,17.90
2010,06,14,12,55,18.00
2010,06,14,12,56,18.10
2010,06,14,12,57,18.20
2010,06,14,12,58,18.30
2010,06,14,12,59,18.20
2010,06,14,13,00,18.20
2010,06,14,13,01,18.20
2010,06,14,13,02,18.30
2010,06,14,13,03,18.30
2010,06,14,13,04,18.10
2010,06,14,13,05,18.10
2010,06,14,13,06,18.10
2010,06,14,13,07,18.10
2010,06,14,13,08,18.10
2010,06,14,13,09,18.00
2010,06,14,13,10,18.10
2010,06,14,13,11,18.20
2010,06,14,13,12,18.30
2010,06,14,13,13,18.30
2010,06,14,13,14,18.30
2010,06,14,13,15,18.30
2010,06,14,13,16,18.20
2010,06,14,13,17,18.20
2010,06,14,13,18,18.10
2010,06,14,13,19,17.90
2010,06,14,13,20,17.90
2010,06,14,13,21,17.90
2010,06,14,13,22,17.80
2010,06,14,13,23,17.80
2010,06,14,13,24,17.80
2010,06,14,13,25,17.70
2010,06,14,13,26,17.70
2010,06,14,13,27,17.70
2010,06,14,13,28,17.70
2010,06,14,13,29,17.70
2010,06,14,13,30,17.70
2010,06,14,13,31,17.80
2010,06,14,13,32,17.80
2010,06,14,13,33,17.70
2010,06,14,13,34,17.70
2010,06,14,13,35,17.70
2010,06,14,13,36,17.70
2010,06,14,13,37,17.60
2010,06,14,13,38,17.60
2010,06,14,13,39,17.60
2010,06,14,13,40,17.60
2010,06,14,13,41,17.60
2010,06,14,13,42,17.60
2010,06,14,13,43,17.60
2010,06,14,13,44,17.50
2010,06,14,13,45,17.50
2010,06,14,13,46,17.50
2010,06,14,13,47,17.40
2010,06,14,13,48,17.40
2010,06,14,13,49,17.40
2010,06,14,13,50,17.30
2010,06,14,13,51,17.30
2010,06,14,13,52,17.40
2010,06,14,13,53,17.30
2010,06,14,13,54,17.30
2010,06,14,13,55,17.40
2010,06,14,13,56,17.40
2010,06,14,13,57,17.40
2010,06,14,13,58,17.40
2010,06,14,13,59,17.50
2010,06,14,14,00,17.60
2010,06,14,14,01,17.60
2010,06,14,14,02,17.70
2010,06,14,14,03,17.80
2010,06,14,14,04,17.80
2010,06,14,14,05,17.80
2010,06,14,14,06,17.80
2010,06,14,14,07,17.80
2010,06,14,14,08,17.80
2010,06,14,14,09,17.90
2010,06,14,14,10,17.90
2010,06,14,14,11,17.90
2010,06,14,14,12,17.90
2010,06,14,14,13,17.90
2010,06,14,14,14,17.90
2010,06,14,14,15,17.90
2010,06,14,14,16,17.80
2010,06,14,14,17,17.80
2010,06,14,14,18,17.80
2010,06,14,14,19,17.80
2010,06,14,14,20,17.70
2010,06,14,14,21,17.70
2010,06,14,14,22,17.70
2010,06,14,14,23,17.70
2010,06,14,14,24,17.70
2010,06,14,14,25,17.70
2010,06,14,14,26,17.70
2010,06,14,14,27,17.70
2010,06,14,14,28,17.70
2010,06,14,14,29,17.70
2010,06,14,14,30,17.60
2010,06,14,14,31,17.60
2010,06,14,14,32,17.70
2010,06,14,14,33,17.70
2010,06,14,14,34,17.70
2010,06,14,14,35,17.80
2010,06,14,14,36,17.80
2010,06,14,14,37,17.80
2010,06,14,14,38,17.90
2010,06,14,14,39,17.90
2010,06,14,14,40,17.90
2010,06,14,14,41,17.80
2010,06,14,14,42,17.80
2010,06,14,14,43,17.90
2010,06,14,14,44,18.10
2010,06,14,14,45,18.00
2010,06,14,14,46,18.00
2010,06,14,14,47,18.00
2010,06,14,14,48,18.00
2010,06,14,14,49,18.00
2010,06,14,14,50,17.90
2010,06,14,14,51,17.80
2010,06,14,14,52,17.70
2010,06,14,14,53,17.70
2010,06,14,14,54,17.70
2010,06,14,14,55,17.70
2010,06,14,14,56,17.80
2010,06,14,14,57,17.80
2010,06,14,14,58,17.70
2010,06,14,14,59,17.60
2010,06,14,15,00,17.40
2010,06,14,15,01,17.40
2010,06,14,15,02,17.30
2010,06,14,15,03,17.20
2010,06,14,15,04,17.10
2010,06,14,15,05,17.10
2010,06,14,15,06,17.10
2010,06,14,15,07,17.00
2010,06,14,15,08,16.80
2010,06,14,15,09,16.70
2010,06,14,15,10,16.70
2010,06,14,15,11,16.70
2010,06,14,15,12,16.70
2010,06,14,15,13,16.70
2010,06,14,15,14,16.70
2010,06,14,15,15,16.70
2010,06,14,15,16,16.60
2010,06,14,15,17,16.50
2010,06,14,15,18,16.40
2010,06,14,15,19,16.40
2010,06,14,15,20,16.50
2010,06,14,15,21,16.40
2010,06,14,15,22,16.50
2010,06,14,15,23,16.50
2010,06,14,15,24,16.50
2010,06,14,15,25,16.40
2010,06,14,15,26,16.40
2010,06,14,15,27,16.40
2010,06,14,15,28,16.40
2010,06,14,15,29,16.50
2010,06,14,15,30,16.50
2010,06,14,15,31,16.40
2010,06,14,15,32,16.40
2010,06,14,15,33,16.40
2010,06,14,15,34,16.50
2010,06,14,15,35,16.60
2010,06,14,15,36,16.60
2010,06,14,15,37,16.60
2010,06,14,15,38,16.70
2010,06,14,15,39,16.70
2010,06,14,15,40,16.70
2010,06,14,15,41,16.70
2010,06,14,15,42,16.60
2010,06,14,15,43,16.60
2010,06,14,15,44,16.50
2010,06,14,15,45,16.40
2010,06,14,15,46,16.40
2010,06,14,15,47,16.40
2010,06,14,15,48,16.50
2010,06,14,15,49,16.50
2010,06,14,15,50,16.50
2010,06,14,15,51,16.40
2010,06,14,15,52,16.40
2010,06,14,15,53,16.40
2010,06,14,15,54,16.50
2010,06,14,15,55,16.60
2010,06,14,15,56,16.60
2010,06,14,15,57,16.40
2010,06,14,15,58,16.40
2010,06,14,15,59,16.40
2010,06,14,16,00,16.30
2010,06,14,16,01,16.30
2010,06,14,16,02,16.30
2010,06,14,16,03,16.40
2010,06,14,16,04,16.40
2010,06,14,16,05,16.30
2010,06,14,16,06,16.20
2010,06,14,16,07,16.00
2010,06,14,16,08,15.90
2010,06,14,16,09,15.90
2010,06,14,16,10,16.00
2010,06,14,16,11,16.10
2010,06,14,16,12,16.10
2010,06,14,16,13,16.20
2010,06,14,16,14,16.30
2010,06,14,16,15,16.30
2010,06,14,16,16,16.30
2010,06,14,16,17,16.30
2010,06,14,16,18,16.30
2010,06,14,16,19,16.30
2010,06,14,16,20,16.20
2010,06,14,16,21,16.10
2010,06,14,16,22,15.90
2010,06,14,16,23,15.90
2010,06,14,16,24,15.80
2010,06,14,16,25,15.80
2010,06,14,16,26,15.90
2010,06,14,16,27,15.90
2010,06,14,16,28,15.90
2010,06,14,16,29,15.80
2010,06,14,16,30,15.80
2010,06,14,16,31,15.80
2010,06,14,16,32,15.80
2010,06,14,16,33,15.70
2010,06,14,16,34,15.70
2010,06,14,16,35,15.60
2010,06,14,16,36,15.70
2010,06,14,16,37,15.70
2010,06,14,16,38,15.80
2010,06,14,16,39,15.80
2010,06,14,16,40,15.80
2010,06,14,16,41,15.80
2010,06,14,16,42,15.80
2010,06,14,16,43,15.80
2010,06,14,16,44,15.70
2010,06,14,16,45,15.70
2010,06,14,16,46,15.70
2010,06,14,16,47,15.70
2010,06,14,16,48,15.70
2010,06,14,16,49,15.80
2010,06,14,16,50,15.80
2010,06,14,16,51,15.80
2010,06,14,16,52,15.80
2010,06,14,16,53,15.80
2010,06,14,16,54,15.90
2010,06,14,16,55,15.80
2010,06,14,16,56,15.80
2010,06,14,16,57,15.80
2010,06,14,16,58,15.90
2010,06,14,16,59,15.90
2010,06,14,17,00,15.90
2010,06,14,17,01,15.90
2010,06,14,17,02,15.80
2010,06,14,17,03,15.80
2010,06,14,17,04,15.80
2010,06,14,17,05,15.80
2010,06,14,17,06,15.80
2010,06,14,17,07,15.80
2010,06,14,17,08,15.80
2010,06,14,17,09,15.80
2010,06,14,17,10,15.80
2010,06,14,17,11,15.70
2010,06,14,17,12,15.70
2010,06,14,17,13,15.70
2010,06,14,17,14,15.70
2010,06,14,17,15,15.70
2010,06,14,17,16,15.60
2010,06,14,17,17,15.70
2010,06,14,17,18,15.70
2010,06,14,17,19,15.80
2010,06,14,17,20,15.80
2010,06,14,17,21,15.80
2010,06,14,17,22,15.90
2010,06,14,17,23,15.90
2010,06,14,17,24,15.90
2010,06,14,17,25,15.90
2010,06,14,17,26,15.80
2010,06,14,17,27,15.70
2010,06,14,17,28,15.60
2010,06,14,17,29,15.60
2010,06,14,17,30,15.50
2010,06,14,17,31,15.50
2010,06,14,17,32,15.40
2010,06,14,17,33,15.40
2010,06,14,17,34,15.30
2010,06,14,17,35,15.30
2010,06,14,17,36,15.30